Regional Weather Roundup
Issued by NWS

Home | Current Version | Previous Version | Text Only | Print | Product List | Glossary Off
Versions: 1 2 3 4 5 6 7 8 9 10 11 12 13 14 15 16 17 18 19 20 21 22 23 24 25 26 27 28 29 30 31 32 33 34 35 36 37 38 39 40 41 42 43 44 45 46 47 48 49 50

000
ASUS43 KLSX 291007
RWRMO
STLRWRMO ALL

WEATHER SUMMARY FOR MISSOURI
NATIONAL WEATHER SERVICE SPRINGFIELD MO
500 AM CDT WED MAR 29 2017

NOTE: "FAIR" INDICATES FEW OR NO CLOUDS BELOW 12,000 FEET WITH NO
       SIGNIFICANT WEATHER AND/OR OBSTRUCTIONS TO VISIBILITY.
       CURRENT SKY AND/OR WEATHER CONDITIONS ARE NOT AVAILABLE FOR
       CHILLICOTHE AND FARMINGTON.

MOZ001>031-035>038-043-044-053-054-291100-
...NORTHERN AND WESTERN MISSOURI...

CITY           SKY/WX    TMP DP  RH WIND       PRES   REMARKS
KANSAS CTY INT RAIN      50  49  96 NE13      29.93R FOG
KANSAS C DTWN  RAIN      51  50  96 NE13G20   29.91R FOG
LEE`S SUMMIT   RAIN      50  50 100 E12       29.91R FOG
ST JOSEPH      RAIN      50  49  96 E13       29.99R FOG
CHILLICOTHE      N/A     50  46  86 NE12      29.98F
KIRKSVILLE     CLOUDY    47  44  90 NE13      30.02S

$$
MOZ066>068-077>081-088>096-101>105-291100-
...SOUTHWEST MISSOURI...

CITY           SKY/WX    TMP DP  RH WIND       PRES   REMARKS
SPRINGFIELD    CLOUDY    55  50  83 SE21      29.83S
JOPLIN         CLOUDY    57  55  93 SE18      29.77F
BRANSON        CLOUDY    54  50  87 SE18G24   29.85F

$$
MOZ032>034-039>042-045>050-055>058-069>072-291100-
...CENTRAL MISSOURI...

CITY           SKY/WX    TMP DP  RH WIND       PRES   REMARKS
COLUMBIA       CLOUDY    51  47  86 E12       29.95R
JEFFERSON CITY CLOUDY    54  47  77 E13       29.94S
ROLLA          CLOUDY    51  48  89 E18G25    29.91F
SEDALIA        LGT RAIN  53  49  86 E17G26    29.88F
WHITEMAN AFB   TSTM      52  52 100 E8        29.87S
WARRENSBURG    TSTM      50  48  93 E13G22    29.89R
OSAGE BEACH    CLOUDY    53  48  83 E12G18    29.89F

$$
MOZ051-052-059>065-291100-
...EAST CENTRAL MISSOURI...

CITY           SKY/WX    TMP DP  RH WIND       PRES   REMARKS
ST LOUIS INTL  CLOUDY    51  43  74 E21       30.04F
SPIRIT OF STL  CLOUDY    51  46  83 E9        30.02F
ST CHARLES     CLOUDY    49  45  86 E15       30.03F

$$
MOZ072>076-082>087-097>100-106>115-291100-
...SOUTH CENTRAL AND SOUTHEAST MISSOURI...

CITY           SKY/WX    TMP DP  RH WIND       PRES   REMARKS
CAPE GIRARDEAU CLOUDY    49  47  93 NE5       30.00F
FARMINGTON     CLOUDY    50  47  89 E8        30.01F
POPLAR BLUFF   MOCLDY    53  51  93 NE9       29.97F
WEST PLAINS    CLOUDY    54  49  83 E16       29.91F

$$



USA.gov is the U.S. government's official web portal to all federal, state and local government web resources and services.